FW6809 Weather Reports


Display with metric or nautical units.
time (UTC)temp
F
wind
direction
speed
MPH
gust
MPH
rain 1hr
in
rain 24hr
in
rain mn
in
humidity
%
barometer
mb
20260902201606 90 0 0.0 0.0 0.00 0.00 0.00 65 1020.1
20260902200056 91 0 0.0 1.0 0.00 0.00 0.00 62 1020.2
20260902194604 91 0 0.0 2.0 0.00 0.00 0.00 61 1020.3
20260902193104 90 0 0.0 1.0 0.00 0.00 0.00 68 1020.5
20260902191556 92 0 0.0 1.0 0.00 0.00 0.00 64 1020.8
20260902190057 93 0 0.0 3.0 0.00 0.00 0.00 59 1020.9
20260902184559 92 0 0.0 1.0 0.00 0.00 0.00 60 1021.0
20260902183100 91 0 0.0 4.0 0.00 0.00 0.00 61 1021.3
20260902181556 92 137 0.0 4.0 0.00 0.00 0.00 60 1021.4
20260902180055 92 0 0.0 4.0 0.00 0.00 0.00 62 1021.5
20260902174600 91 127 0.0 0.0 0.00 0.00 0.00 61 1021.6
20260902173056 92 0 0.0 3.0 0.00 0.00 0.00 58 1021.9
20260902171606 91 0 0.0 4.0 0.00 0.00 0.00 60 1022.1
20260902170058 91 0 0.0 1.0 0.00 0.00 0.00 64 1022.2
20260902164556 90 139 0.0 3.0 0.00 0.00 0.00 60 1022.4
20260902163053 90 0 0.0 2.0 0.00 0.00 0.00 66 1022.5
20260902161600 90 0 0.0 2.0 0.00 0.00 0.00 66 1022.7
20260902160114 89 0 0.0 1.0 0.00 0.00 0.00 73 1022.8
20260902154559 88 0 0.0 0.0 0.00 0.00 0.00 74 1022.9
20260902153100 88 0 0.0 0.0 0.00 0.00 0.00 76 1023.0
20260902151604 88 0 0.0 0.0 0.00 0.00 0.00 73 1023.0
20260902150056 87 0 0.0 0.0 0.00 0.00 0.00 77 1022.9
20260902144552 86 0 0.0 1.0 0.00 0.00 0.00 77 1022.9
20260902143055 86 0 0.0 1.0 0.00 0.00 0.00 79 1022.9
20260902141555 85 0 0.0 0.0 0.00 0.00 0.00 81 1023.0
20260902140058 84 0 0.0 0.0 0.00 0.00 0.00 83 1022.9
20260902134556 82 0 0.0 0.0 0.00 0.00 0.00 85 1022.7
20260902133106 80 0 0.0 0.0 0.00 0.00 0.00 86 1022.8
20260902131601 79 0 0.0 0.0 0.00 0.00 0.00 88 1022.8
20260902130059 77 0 0.0 0.0 0.00 0.00 0.00 89 1022.7
20260902124555 76 0 0.0 0.0 0.00 0.00 0.00 94 1022.7
20260902123112 72 0 0.0 0.0 0.00 0.00 0.00 99 1022.6
20260902121603 70 0 0.0 0.0 0.00 0.00 0.00 100 1022.6
20260902120054 68 0 0.0 0.0 0.00 0.00 0.00 100 1022.4
20260902114555 67 0 0.0 0.0 0.00 0.00 0.00 100 1022.3
20260902113053 67 0 0.0 0.0 0.00 0.00 0.00 100 1022.1
20260902111556 67 0 0.0 0.0 0.00 0.00 0.00 100 1021.9
20260902110103 67 0 0.0 0.0 0.00 0.00 0.00 100 1021.8
20260902104601 67 0 0.0 0.0 0.00 0.00 0.00 100 1021.7
20260902103101 68 0 0.0 0.0 0.00 0.00 0.00 100 1021.5
20260902101555 68 0 0.0 0.0 0.00 0.00 0.00 100 1021.4
20260902100056 68 0 0.0 0.0 0.00 0.00 0.00 100 1021.4
20260902094600 68 0 0.0 0.0 0.00 0.00 0.00 100 1021.3
20260902093056 68 0 0.0 0.0 0.00 0.00 0.00 100 1021.3
20260902091559 68 0 0.0 0.0 0.00 0.00 0.00 100 1021.3
20260902090057 68 0 0.0 0.0 0.00 0.00 0.00 100 1021.1
20260902084602 68 0 0.0 0.0 0.00 0.00 0.00 100 1020.9
20260902083108 68 0 0.0 0.0 0.00 0.00 0.00 100 1020.9
20260902081559 68 0 0.0 0.0 0.00 0.00 0.00 100 1020.9
20260902080112 68 0 0.0 0.0 0.00 0.00 0.00 100 1020.7
20260902074606 69 0 0.0 0.0 0.00 0.00 0.00 100 1020.6
20260902073052 69 0 0.0 0.0 0.00 0.00 0.00 100 1020.6
20260902071603 69 0 0.0 0.0 0.00 0.00 0.00 100 1020.5
20260902070058 69 0 0.0 0.0 0.00 0.00 0.00 99 1020.6
20260902064603 69 0 0.0 0.0 0.00 0.00 0.00 99 1020.7
20260902063104 69 0 0.0 0.0 0.00 0.00 0.00 99 1020.8
20260902061613 69 0 0.0 0.0 0.00 0.00 0.00 99 1020.9
20260902060055 70 0 0.0 0.0 0.00 0.00 0.00 99 1020.9
20260902054553 70 0 0.0 0.0 0.00 0.00 0.00 99 1021.0
20260902053054 70 0 0.0 0.0 0.00 0.00 0.00 99 1021.1
20260902051557 70 0 0.0 0.0 0.00 0.00 0.00 99 1021.0
20260902044550 70 0 0.0 0.0 0.00 0.00 0.00 99 1021.0
20260902043104 71 0 0.0 0.0 0.00 0.00 0.00 99 1021.2
20260902041601 71 0 0.0 0.0 0.00 0.00 0.00 98 1021.2
20260902040054 71 0 0.0 0.0 0.00 0.00 0.00 98 1021.2
20260902034602 71 0 0.0 0.0 0.00 0.00 0.00 98 1021.2
20260902033109 71 0 0.0 0.0 0.00 0.00 0.00 98 1021.2
20260902031606 72 0 0.0 0.0 0.00 0.00 0.00 97 1021.3
20260902030052 72 0 0.0 0.0 0.00 0.00 0.00 97 1021.2
20260902024555 73 0 0.0 0.0 0.00 0.00 0.00 97 1021.3
20260902023106 73 0 0.0 0.0 0.00 0.00 0.00 96 1021.2
20260902021609 73 0 0.0 0.0 0.00 0.00 0.00 96 1021.0
20260902020105 74 0 0.0 0.0 0.00 0.00 0.00 96 1021.0
20260902014554 74 0 0.0 0.0 0.00 0.00 0.00 96 1020.9
20260902013100 75 0 0.0 0.0 0.00 0.00 0.00 95 1020.8
20260902011551 75 0 0.0 0.0 0.00 0.00 0.00 95 1020.7
20260902010056 76 0 0.0 0.0 0.00 0.00 0.00 94 1020.7
20260902004556 76 0 0.0 0.0 0.00 0.00 0.00 94 1020.4
20260902003053 77 0 0.0 0.0 0.00 0.00 0.00 93 1020.3
20260902001557 78 0 0.0 0.0 0.00 0.00 0.00 92 1020.3
20260902000056 79 0 0.0 0.0 0.00 0.00 0.00 90 1020.4
20260901234606 80 0 0.0 0.0 0.00 0.00 0.00 89 1020.4
20260901233105 81 0 0.0 0.0 0.00 0.00 0.00 86 1020.5
20260901231558 83 0 0.0 0.0 0.00 0.00 0.00 83 1020.6
20260901230058 84 0 0.0 0.0 0.00 0.00 0.00 80 1020.6
20260901224600 86 0 0.0 0.0 0.00 0.00 0.00 76 1020.5
20260901223055 87 0 0.0 0.0 0.00 0.00 0.00 67 1020.3
20260901221617 87 0 0.0 0.0 0.00 0.00 0.00 66 1020.3
20260901220125 88 0 0.0 3.0 0.00 0.00 0.00 63 1020.3
20260901214555 89 0 0.0 4.0 0.00 0.00 0.00 62 1020.2
20260901213110 89 0 0.0 0.0 0.00 0.00 0.00 61 1020.3
20260901211558 89 118 0.0 4.0 0.00 0.00 0.00 61 1020.3
20260901210057 89 0 0.0 2.0 0.00 0.00 0.00 58 1020.5
20260901204554 88 0 0.0 0.0 0.00 0.00 0.00 62 1020.6
20260901203106 89 126 0.0 6.0 0.00 0.00 0.00 58 1020.9